STARLINK-4439, 53498

Orbit data source: Space-Track

STARLINK-4439, 53498 is a payload satellite owned by SpaceX/Seattle (US) in SSO that was launched on Fri, 12 Aug 2022 UTC via an FALCON 9 launch vehicle from the Air Force Western Test Range (AFWTR). Payload-class satellites include a variety of spacecraft equipped with specific instruments for various scientific and technological missions. These include communications satellites like Starlink; space stations such as the ISS; scientific satellites like the Hubble; Earth observation satellites from companies like Planet Labs, Umbra, and HawkEye 360; GPS; miniature CubeSats for education and research; and military/defense satellites.

Loading next visibility...
Identifier
53498, 2022-099AK
Orbit
SSO
Country
Flag of USUS
Related business
Manufacturer
SpaceX/Seattle
Mission
Operational Commercial Communications
Bus & Motor
STARLINK, Unknown motor
Mass
300 kg wet, ~275 kg dry
Launch date (UTC)
2022-08-12 (3 years ago)
Launch vehicle
FALCON 9
Launch site
Air Force Western Test Range (AFWTR)
Object type
Payload
Rocket body
Debris
Shape & HBR
Box + 1 Pan, 10.1 m
Radar Cross Section
13.562 m², Large (>1 m²)

Expand to show TLE details & history
Last TLE update: 7 hours ago

TLE from 7 hours ago
0 STARLINK-4439
1 53498U 22099AK  25308.45914937  .00000119  00000-0  12462-4 0  9991
2 53498  97.6052  67.7211 0001835  88.4514 271.6923 15.05649044177206
Epoch: 2025-11-04T11:01Z
TLE epoch observation values (Epoch: 2025-11-04T11:01:10.505Z)
Latitude
-0.00002°
Longitude
-141.51854°
Altitude
552.542 km
Speed
7.586 km/s
True Right ascension
04h 30m 53s
True Declination
0° 00' 00"
Sunlit
Object was in full shadow at epoch
Visualization orbit readout
Latitude
Unknown
Longitude
Unknown
Altitude
Unknown
Speed
Unknown
Apparent Right ascension
Unknown
Apparent Declination
Unknown
Sunlit
N/A
Visualization observer readout
Local Sidereal Time
13:53:37
Azimuth
Unknown
Elevation
Unknown
Doppler factor
Unknown
Orbital elements
Apogee altitude
547.778 km
Perigee altitude
545.237 km
Semi-major axis
6,924.645 km
Eccentricity
0.00018
Inclination
97.6052°
RAAN
67.7211°
Arg. of periapsis
88.4514°
True anomaly
271.67128°
Mean anomaly
271.6923°
Eccentric anomaly
271.68179°
Mean motion
3.76658 °/min
Orbital period
95.58 mins
BSTAR
0.000012462
Loading maneuver chart data...
Computing Atmospheric mass density...
Loading historical data...
Loading historical data...
Loading historical data...
Loading historical data...
Loading historical data...
Loading historical data...
Loading historical data...

Documentation

Showing up to 5 results
|